Regional Weather Roundup
Issued by NWS Newport/Morehead, NC

Current Version | Previous Version | Graphics & Text | Print | Product List | Glossary Off
Versions: 1 2 3 4 5 6 7 8 9 10 11 12 13 14 15 16 17 18 19 20 21 22 23 24 25 26 27 28 29 30 31 32 33 34 35 36 37 38 39 40 41 42 43 44 45 46 47 48 49 50
000 ASUS42 KMHX 171824 RWRMHX WEATHER ROUNDUP FOR EASTERN NORTH CAROLINA NATIONAL WEATHER SERVICE NEWPORT/MOREHEAD CITY NC 100 PM EST TUE JAN 17 2017 NOTE: "FAIR" INDICATES FEW OR NO CLOUDS BELOW 12,000 FEET WITH NO SIGNIFICANT WEATHER AND/OR OBSTRUCTIONS TO VISIBILITY NCZ015>017-031-032-045>047-102-103-171900- NORTH COAST CITY SKY/WX TMP DP RH WIND PRES REMARKS EDENTON CLOUDY 60 53 75 CALM 30.19F ELIZABETH CITY CLOUDY 54 50 86 S8 30.18F KITTY HAWK NOT AVBL MANTEO SUNNY 54 50 85 SW6 30.19F $$ NCZ045>047-081-094-103-104-171900- CENTRAL COAST CITY SKY/WX TMP DP RH WIND PRES REMARKS FRISCO PTSUNNY 57 49 74 S3 30.20F $$ NCZ095-097-098-100-101-171900- SOUTHERN COAST CITY SKY/WX TMP DP RH WIND PRES REMARKS BEAUFORT MOSUNNY 68 61 78 S6 30.20F CEDAR ISLAND NOT AVBL JACKSONVILLE PTSUNNY 70 59 68 VRB7 30.19F PINEY ISLAND CLOUDY N/A N/A N/A E5 30.20F WILMINGTON MOSUNNY 70 58 65 W9 30.21F $$ NCZ011>013-027>030-043-044-078>080-089-090>093-098-171900- COASTAL PLAIN CITY SKY/WX TMP DP RH WIND PRES REMARKS AHOSKIE CLOUDY 57 52 84 SW3 30.17F CLINTON CLOUDY 57 55 92 SW7 30.21F FOG ELIZABETHTOWN CLOUDY 58 56 90 S5 30.21F FOG GOLDSBORO NOT AVBL GREENVILLE CLOUDY 57 52 82 SW7 30.20F HAVELOCK CLOUDY 69 57 65 VRB3 30.20F KENANSVILLE CLOUDY 59 54 82 W8 30.21F KINSTON CLOUDY 57 52 82 SW7 30.21F NEW BERN CLOUDY 66 54 65 SW7 30.21F RICHLANDS NOT AVBL ROCKY MOUNT CLOUDY 57 54 89 S8 30.19F WASHINGTON CLOUDY 59 52 76 SW7 30.20F WHITEVILLE PTSUNNY 60 56 87 SW7 30.22F $$ AMZ130-135-150-152-154-156-158-170-250-252-270-ANZ085-086-088-633-658-670-171900- MARINE OBSERVATIONS STATION/POSITION TIME TEMP WIND PRES WAVE SWELL AIR SEA DIR/SP/G HT/PER HT/PER (UTC) (F) (DEG/KT/KT) (MB) (FT/S) (FT/S) CHESAPEAKE LIGHT NOT AVBL 64 E VA BEACH 1750 54 57 210/ 6/ 8 1021.3 2/10 2/10 DUCK 1800 52 44 210/ 7/ 11 1021.3 2 E DUCK 1800 45 N/A 2/ 9 OREGON INLET 1800 55 48 160/ 3/ 5 1022.1 13E OREGON INLT NOT AVBL HATTERAS CG 1800 53 52 350/ 2/ 2 1022.2 DIAMOND BUOY 1750 59 73 350/ 4/ 6 1022.8 2/ 8 2/ 8 CAPE LOOKOUT 1800 60 40/ 5/ 6 1022.2 BEAUFORT LAB 1800 63 49 200/ 2/ 4 1021.6 30 SE NEW RVR IN 1808 62 62 240/ 2/ 4 1022.6 30 SE NEW RVR IN 1743 63 N/A 2/ 9 27 SE WRIGHTSVLE 1808 69 69 230/ 12/ 17 1022.2 5 SE WRIGHTSVLE 1808 54 80/ 4/ 8 1022.7 225 S CAPE HAT 1750 72 72 210/ 12/ 14 1024.1 3/ 9 2/ 9 41 SE CHARLESTON 1750 69 71 300/ 4/ 4 1023.4 3/ 8 3/ 8 $$

USA.gov is the U.S. government's official web portal to all federal, state and local government web resources and services.